HST
1 20580U 90037B   24150.18096971  .00004432  00000-0  20572-3 0  9999
2 20580  28.4677 112.4457 0002626 186.6342 173.4216 15.17498680674405
ISS (ZARYA)
1 25544U 98067A   24150.21064527  .00033630  00000-0  58144-3 0  9999
2 25544  51.6406  49.3674 0005989 245.3687 253.3943 15.50625638455603
CXO
1 25867U 99040B   24149.35049423  .00000720  00000-0  00000-0 0  9999
2 25867  40.6804 155.7827 8908050 295.0223 359.9343  0.37806773 14484